User: anonymous   Login
Location: Unspecified
(0.0000°N, 0.0000°E)
Time: 14:19:46
(UTC+00:00)
Language:

CUTE 1.7 + AOD 2 - Orbit

View from above orbital plane
View from above orbital plane
View from above satellite
View from above satellite

Ground track
Ground track

The orbit data is extracted from the following two-line orbital elements,

1 32785U 08021C   17345.84490845 +.00000309 +00000-0 +39232-4 0  9993
2 32785 097.5556 001.9036 0011811 303.4453 056.5634 14.88024827521244
Epoch (UTC): 11 December 2017 20:16:40
Eccentricity: 0.0011811
inclination: 97.5556°
perigee height: 596 km
apogee height: 612 km
right ascension of ascending node: 1.9036°
argument of perigee: 303.4453°
revolutions per day: 14.88024827
mean anomaly at epoch: 56.5634°
orbit number at epoch: 52124

The dashed part of the orbit path shows where the satellite is in the earth's shadow,  

DLR